Theta_e
305 308 310 310 309 310 307 307 302 307 309 313 316 319 317 326 325 328 322 325 342 343 347 349 349 348 347 349 344 343 344 341 339 342 346 345 346 344 345 344 345 344 342 339
298 309 310 309 309 310 310 311 310 311 309 316 319 320 320 320 321 333 339 342 344 347 347 347 349 350 350 349 348 346 343 343 345 344 342 345 342 343 344 343 341 340 339 338
294 305 307 302 307 310 309 311 312 305 310 318 318 322 321 322 321 338 339 342 344 345 348 349 350 351 348 347 348 345 343 343 343 342 342 341 343 342 340 339 339 337 334 329
298 303 295 306 313 313 311 313 312 315 316 319 317 317 318 324 321 335 342 344 345 345 348 351 352 351 348 345 344 341 340 340 340 339 340 341 342 337 336 334 332 328 325 326
299 299 305 309 313 312 309 308 317 317 320 319 319 319 320 335 324 336 345 346 345 344 347 345 346 345 335 331 330 338 336 336 337 336 338 338 336 332 329 325 324 323 325 323
299 299 297 308 317 319 317 304 319 321 320 318 321 311 315 325 346 345 345 343 343 344 345 341 340 335 331 333 333 332 332 333 338 337 334 329 327 327 327 327 324 326 325 316
301 299 308 317 320 321 304 312 326 323 323 321 322 318 319 336 338 339 341 343 345 344 342 342 339 337 331 329 327 331 338 336 331 327 328 326 325 325 325 325 320 319 318 318
300 298 304 321 321 313 316 323 333 339 339 338 339 339 339 338 338 338 339 341 342 339 340 340 337 335 334 332 335 333 327 325 325 322 323 324 321 323 313 310 310 311 309 309
310 309 317 319 318 323 323 318 320 336 339 338 337 337 338 336 336 336 337 335 336 335 334 335 333 331 327 329 328 324 321 321 323 320 321 320 321 315 310 308 307 307 306 305
312 316 319 318 321 322 322 322 321 329 339 339 335 335 333 335 334 334 334 332 333 331 329 327 328 327 325 325 325 323 320 318 320 316 318 316 315 315 310 306 306 305 305 303
314 315 320 321 323 323 326 328 323 337 339 338 336 334 334 334 333 334 333 332 331 329 327 324 323 322 323 322 323 320 318 314 313 314 313 316 313 313 309 307 307 305 304 303
312 317 319 319 325 327 323 331 335 335 333 334 336 334 336 334 334 333 332 331 329 327 324 322 321 321 320 320 319 318 316 311 307 311 309 309 311 307 310 307 305 303 303 303
316 321 320 319 322 321 324 333 335 333 332 332 333 336 336 333 332 329 332 331 328 325 323 321 320 319 320 320 314 309 307 309 307 308 307 308 308 308 307 305 306 304 302 301
321 319 315 316 317 327 330 334 332 333 332 331 332 333 332 332 332 332 331 331 328 324 322 320 318 316 317 315 313 312 304 308 305 307 306 306 306 307 308 307 303 304 303 301
324 326 324 325 327 328 334 332 332 332 332 332 335 335 333 331 333 332 332 328 325 323 320 317 315 314 314 314 310 304 303 303 305 308 306 307 305 307 306 305 306 307 304 301
325 326 327 323 324 327 330 331 327 330 332 333 335 334 334 335 333 330 328 327 322 318 317 315 313 313 314 312 311 305 303 310 309 304 306 304 304 304 305 305 305 305 305 305
322 321 322 324 324 327 328 322 324 332 333 336 336 334 334 331 328 325 325 325 322 318 315 314 312 311 311 313 311 310 306 306 311 305 304 304 304 303 304 305 304 304 304 305
325 324 324 326 328 325 317 316 317 320 330 334 334 331 328 326 324 323 319 318 316 316 315 313 313 313 312 311 312 313 312 309 307 309 307 306 306 305 305 305 304 304 304 305
325 327 330 333 330 323 320 320 326 332 333 332 330 328 327 324 319 318 317 315 313 309 311 310 316 313 309 314 312 311 312 312 310 311 309 309 307 307 306 306 306 306 307 308
327 333 333 333 334 331 323 322 334 332 330 329 326 323 320 318 318 315 317 312 312 312 312 309 310 314 311 311 310 310 311 312 312 311 310 308 308 308 308 307 307 308 310 308
332 332 332 331 331 332 332 332 329 327 327 325 322 320 318 317 316 314 311 308 309 313 309 311 310 312 312 313 315 311 310 310 311 311 308 309 311 309 309 310 310 312 312 309
331 330 330 329 330 328 328 328 327 325 322 321 320 318 316 314 314 312 312 311 312 312 310 307 303 308 310 316 310 309 309 311 313 312 311 314 311 309 310 312 312 310 310 310
330 330 330 329 326 326 327 326 326 324 322 321 319 316 314 313 312 308 307 312 313 310 309 309 312 315 318 308 309 309 311 312 312 312 312 312 312 312 310 311 313 312 312 312
330 329 328 329 328 326 324 324 324 323 321 320 317 315 312 311 311 312 314 313 313 311 308 310 312 315 315 308 310 310 311 312 313 312 314 309 311 312 312 311 310 312 315 314
328 326 325 323 320 318 318 318 317 317 316 316 315 314 314 315 313 314 314 313 311 310 308 311 313 315 308 308 310 311 311 313 313 315 311 311 310 313 313 313 311 315 315 308
323 321 321 320 318 317 316 316 314 314 314 313 314 316 315 316 317 316 314 314 311 309 309 310 309 309 309 310 311 312 313 313 314 313 313 311 312 315 315 314 313 316 306 303
324 318 323 324 321 320 318 318 317 315 315 315 313 316 317 317 316 316 314 313 312 310 310 311 311 311 312 312 312 313 312 314 310 311 315 314 315 317 314 312 311 305 303 301
Wind_Speed
1 6 4 10 21 19 22 6 7 10 7 6 6 6 2 4 13 13 20 20 15 16 11 12 12 9 8 9 10 8 8 8 6 5 7 6 7 6 5 6 5 4 5 6
4 8 10 14 16 20 25 8 9 12 2 2 6 7 1 4 6 8 18 15 16 13 15 13 13 12 9 8 9 9 9 8 6 5 6 6 6 5 5 6 6 6 7 7
8 10 9 9 7 16 2 12 16 9 8 6 4 3 4 5 6 17 17 13 14 15 15 13 12 11 9 8 7 7 8 7 7 7 6 5 5 6 6 6 6 7 6 7
3 5 2 8 14 8 14 8 13 16 18 17 14 10 7 4 5 6 12 10 11 9 9 13 10 11 13 9 8 6 7 9 12 11 10 8 6 5 6 5 5 4 5 7
7 3 7 7 8 7 7 4 11 21 17 19 6 8 12 16 10 10 9 8 7 6 6 10 14 16 11 7 9 8 7 8 8 10 7 3 4 5 4 3 4 4 4 9
3 8 6 8 5 15 7 4 9 30 25 20 10 12 8 8 6 12 9 8 11 11 12 14 12 16 14 8 7 7 7 6 5 6 9 6 3 2 2 3 3 5 7 10
8 6 4 1 14 13 6 1 8 21 19 15 11 14 13 9 9 8 8 13 15 14 13 12 13 14 13 8 7 6 5 7 7 7 8 5 3 1 2 5 6 7 8 6
6 7 3 5 5 9 7 7 6 16 19 19 20 19 13 12 11 11 14 14 15 13 12 9 9 12 11 9 5 7 8 7 6 7 4 3 1 5 8 7 7 7 7 6
5 3 2 4 12 11 14 7 11 7 16 18 17 15 14 10 9 11 13 11 9 11 12 9 11 10 10 5 7 7 7 7 7 5 3 1 3 6 5 6 6 5 3 3
7 11 7 4 2 9 16 10 11 14 14 15 14 14 14 11 11 10 11 11 11 12 11 9 7 7 7 6 6 7 7 6 5 5 3 3 4 5 5 5 4 3 4 4
2 10 11 9 8 11 19 19 19 9 16 15 13 12 11 11 9 8 10 9 9 9 10 10 8 7 6 5 6 6 6 4 3 3 3 4 5 4 5 3 5 4 3 3
4 6 5 10 10 8 14 19 16 15 13 11 11 12 10 10 9 7 9 10 10 9 9 8 8 7 6 5 6 5 5 3 3 4 3 3 5 3 5 9 9 10 7 5
8 0 2 14 13 19 29 14 15 14 10 17 13 14 12 10 9 11 10 11 11 10 8 8 7 7 6 6 7 7 6 3 2 4 3 2 3 4 5 2 1 7 10 9
14 12 3 21 14 8 4 12 23 18 15 15 14 16 12 11 11 10 10 10 11 11 8 8 7 6 5 5 5 6 4 3 2 4 3 2 1 3 3 5 4 5 9 9
13 13 9 13 7 2 3 8 12 16 16 14 17 18 18 16 13 10 8 12 11 9 8 8 7 5 5 4 6 7 4 1 2 2 3 3 1 3 1 2 3 3 2 4
4 3 7 4 4 10 5 2 7 5 8 10 15 14 14 12 12 10 10 11 10 7 7 8 7 5 5 4 5 5 3 3 1 1 2 2 2 3 3 3 4 3 3 6
3 8 7 18 21 10 10 16 20 29 15 18 15 15 16 15 12 9 8 7 8 8 8 7 5 3 2 3 3 4 4 4 7 2 3 3 3 2 3 3 3 2 3 4
6 7 14 6 9 14 14 18 24 27 14 14 12 15 14 13 11 8 10 10 9 8 7 7 5 4 5 5 5 4 1 6 4 4 4 4 4 4 4 4 3 3 4 5
14 13 7 10 15 15 12 15 15 17 22 12 12 12 13 11 12 10 9 8 9 8 4 5 6 8 5 9 7 7 7 5 5 4 4 6 5 4 5 4 4 4 5 4
4 10 17 15 12 13 11 10 11 16 14 13 13 14 13 11 11 9 9 7 6 5 6 6 7 8 9 5 6 8 6 5 6 7 4 6 3 4 3 4 4 5 5 3
12 16 16 15 13 14 13 12 16 13 11 11 13 12 12 10 9 8 8 5 1 6 7 9 5 4 3 7 11 4 4 5 8 9 3 3 4 1 2 4 5 4 4 2
12 13 13 12 12 14 12 12 12 13 13 13 12 11 10 8 7 6 4 6 4 9 5 4 4 7 7 5 3 4 4 5 7 2 3 3 3 3 5 5 3 3 3 4
10 9 11 12 12 11 9 9 9 10 9 9 8 8 6 5 5 5 4 6 5 6 4 4 7 11 9 4 4 5 5 6 6 5 3 4 4 3 3 4 4 5 6 5
11 11 10 8 9 8 7 6 8 9 9 8 8 7 7 5 3 3 3 9 7 8 6 4 4 8 9 4 4 4 5 6 6 5 4 5 3 5 1 2 3 6 8 13
9 8 9 8 7 5 7 8 9 7 7 7 6 5 6 5 5 5 3 5 9 7 5 7 7 7 4 4 5 5 5 6 5 3 3 5 4 2 4 5 1 2 3 2
7 6 6 7 7 5 5 5 6 4 6 5 4 4 4 4 3 6 5 6 6 6 4 4 5 5 5 6 6 6 5 5 3 1 6 7 5 3 3 5 2 3 4 3
5 7 6 5 7 7 7 6 7 6 6 6 5 5 5 4 5 5 6 6 6 6 5 5 6 7 6 6 6 6 6 5 6 5 8 4 2 7 6 3 3 4 4 4
Wind_Direction
27 133 175 183 264 286 293 169 129 183 193 220 243 331 41 141 123 201 163 203 158 141 136 133 126 122 129 120 138 135 121 128 133 109 89 70 61 34 357 349 348 344 350 338
216 231 207 217 257 274 280 106 97 102 36 64 257 221 286 327 21 143 142 149 158 128 139 141 142 141 137 128 130 127 125 125 114 88 69 61 40 3 23 20 5 6 353 2
262 248 204 245 229 255 340 118 142 140 201 180 259 197 234 199 50 149 157 152 150 152 150 155 150 141 125 113 108 98 105 104 86 64 53 20 54 56 47 26 11 2 20 10
181 34 268 256 252 286 289 163 182 133 162 166 177 173 249 67 129 245 146 138 146 150 151 155 146 138 105 130 113 129 118 86 69 55 39 9 46 46 46 37 16 15 345 17
127 178 291 323 282 255 189 289 89 134 145 176 147 35 356 319 266 231 132 120 100 84 94 107 115 106 132 85 83 85 98 93 103 109 86 27 55 45 28 31 23 331 314 74
172 144 202 252 293 344 347 36 126 150 168 158 122 89 285 293 59 81 76 75 98 98 85 89 102 121 114 99 125 120 98 101 93 78 84 94 76 43 328 27 343 329 51 102
214 211 130 177 294 311 83 10 335 152 165 161 164 162 187 202 90 81 80 80 89 92 97 95 113 116 107 108 98 103 110 83 79 74 95 94 56 326 351 31 46 37 54 81
212 201 240 28 21 92 248 318 294 100 116 108 117 129 129 115 97 87 95 95 97 95 89 93 92 96 96 92 114 99 97 98 94 81 73 96 31 46 68 58 46 42 40 31
302 147 35 337 129 150 84 53 258 69 110 113 123 122 115 114 106 105 109 105 93 99 99 98 97 100 102 105 104 100 101 101 108 108 128 73 83 99 79 65 59 47 40 29
2 14 2 278 200 107 80 79 281 269 113 106 118 129 134 137 138 128 121 114 110 105 96 86 76 95 111 122 119 119 117 122 129 125 157 100 101 102 88 84 84 69 48 44
300 346 359 114 314 165 158 181 207 165 122 131 146 143 138 139 136 127 123 127 117 117 117 118 118 109 109 120 129 124 126 120 102 175 119 103 74 131 136 152 144 123 104 111
248 220 149 264 287 318 261 192 157 135 134 142 140 147 153 146 136 131 128 125 120 119 120 119 117 117 118 102 92 134 119 114 94 108 92 106 135 112 47 144 128 121 142 164
204 273 93 305 290 281 250 148 151 128 151 156 159 150 147 131 128 125 119 124 127 127 122 122 120 121 130 120 110 99 105 103 137 111 92 119 141 168 160 354 144 175 189 209
151 129 112 229 260 316 164 131 138 158 162 166 165 145 130 102 106 113 126 125 119 114 116 120 116 117 114 104 101 128 117 107 91 150 128 111 196 260 162 169 197 235 235 213
181 180 174 215 333 16 103 125 153 163 178 156 138 131 128 137 132 132 118 113 116 113 113 112 120 143 136 133 103 96 93 44 35 158 169 189 276 324 145 148 235 204 200 212
352 85 72 108 248 295 156 198 170 218 112 107 130 117 121 111 106 121 122 122 118 124 128 126 132 152 158 169 142 126 136 175 212 327 179 104 60 23 341 301 288 291 193 223
30 332 332 168 216 201 53 76 56 42 326 116 106 100 104 107 106 101 107 108 106 109 118 120 130 107 62 288 187 183 167 211 223 222 181 160 176 201 257 293 287 315 278 265
273 252 270 231 185 109 95 91 85 88 35 343 79 104 109 115 118 111 101 102 96 84 98 106 102 61 63 43 25 25 179 200 212 206 200 191 216 219 232 249 270 267 279 280
263 265 35 47 110 113 120 120 122 125 142 171 133 116 113 101 106 109 105 100 107 110 127 114 92 61 67 32 20 8 355 321 260 250 201 201 234 233 216 242 259 268 276 280
306 64 68 68 81 109 104 105 117 103 117 127 108 107 106 111 108 117 115 115 136 145 132 137 106 105 90 75 216 236 282 305 309 304 226 219 207 221 261 240 246 267 270 271
89 80 76 72 69 68 78 87 95 107 111 107 108 108 114 123 122 113 114 135 105 115 109 96 108 134 182 220 251 247 286 288 285 276 254 220 199 252 283 267 268 275 286 280
87 83 83 84 80 77 74 87 96 101 105 106 113 116 115 107 107 86 59 132 167 135 135 152 187 224 247 273 252 272 286 294 293 344 39 6 318 286 288 285 292 280 277 270
98 103 95 96 102 106 101 90 90 100 105 110 110 110 116 125 122 112 114 191 178 186 172 210 214 213 222 241 266 284 296 301 319 309 6 323 294 259 278 320 330 326 318 299
93 93 94 89 89 91 97 102 87 85 87 87 96 110 126 126 147 203 210 166 190 176 195 235 260 198 194 232 263 279 291 290 297 291 350 312 309 309 93 240 323 43 36 307
101 99 95 91 94 89 95 96 95 94 98 105 119 138 167 184 169 197 171 162 180 171 180 217 208 202 210 247 257 262 268 267 269 321 301 294 299 43 343 296 186 235 339 36
110 120 132 141 134 125 124 129 131 144 135 143 162 205 215 222 194 145 165 175 176 185 202 212 203 207 212 231 245 257 263 280 277 250 244 262 241 194 232 259 272 57 95 57
164 154 160 157 163 160 168 182 158 167 157 160 174 209 210 190 178 176 177 172 177 195 215 226 195 196 208 223 236 245 252 256 310 336 306 349 98 46 292 321 42 76 81 69